Location: Marse
(42.1502°N, 110.9866°W)
Time: 09:35:19
(UTC+00:00)

Oscar 19 - Pass Details

Date: 11 July 2022
Orbit: 773 x 790 km, 98.8° (Epoch: 13 August)

Event Time Altitude Azimuth Distance (km) Brightness Sun altitude
Rises 10:05:31 0° 25° (NNE) 3,258 15.5 -16.4°
Reaches altitude 10° 10:08:11 10° 38° (NE) 2,327 14.5 -16.1°
Maximum altitude 10:12:29 27° 95° (E) 1,460 12.4 -15.6°
Drops below altitude 10° 10:16:47 10° 153° (SSE) 2,318 12.9 -15.1°
Enters shadow 10:18:48 - 163° (SSE) 3,015 13.4 -14.8°
